CAPE
0 0 0 0 0 0 0 0 0 0 4 0 0 0 0 0 13 0 0 16 502 527 666 522 0 0 2500 3123 3441 4420 4576 3616 2587 2045 1801 1450 1229 836 594 319 0 0 0 0
0 0 0 0 0 0 0 0 0 0 0 0 0 0 0 6 0 0 0 395 959 100 119 70 0 0 1796 2812 3204 2278 2291 2791 1787 953 661 638 594 308 196 56 0 0 0 0
0 0 0 0 0 0 0 0 0 0 0 0 0 0 0 0 0 0 0 317 615 651 32 0 0 947 1471 1152 1156 958 903 694 1068 754 482 403 256 324 232 1 0 0 0 0
0 0 0 0 0 0 0 0 0 0 0 0 0 0 0 0 1 0 52 493 494 585 223 444 694 501 678 622 693 580 467 384 332 375 839 995 758 218 0 0 0 0 0 0
0 0 0 0 0 0 0 0 0 0 0 0 0 0 0 0 5 15 633 435 334 754 729 406 116 35 44 69 25 102 3 24 85 95 160 328 99 41 0 0 0 0 0 0
0 0 0 0 0 0 0 0 0 0 0 0 0 0 0 23 28 325 367 89 12 104 16 0 0 0 0 0 1 0 0 2 0 0 0 0 0 0 0 0 0 0 0 0
0 0 0 0 0 0 0 0 0 0 0 0 0 0 0 55 430 440 176 48 0 0 0 0 0 0 0 0 0 2 3 2 4 0 0 0 0 0 0 0 0 0 0 0
0 0 0 0 0 0 0 0 0 0 0 2 18 29 101 61 525 470 227 118 57 15 0 0 0 0 0 0 0 0 1 2 1 0 0 0 0 0 0 0 0 0 0 0
0 0 0 0 0 0 0 0 0 15 6 2 24 137 147 168 205 323 191 121 135 87 36 10 8 3 0 0 0 0 0 0 0 0 0 0 0 0 0 3 1 0 0 0
0 0 0 0 0 0 0 0 0 0 3 54 120 156 52 234 147 167 228 225 270 177 58 32 23 0 0 0 0 0 0 0 0 0 0 0 0 0 0 0 7 11 4 5
0 9 0 1 0 0 0 0 0 68 50 113 98 157 466 244 214 253 273 387 290 159 86 69 16 0 0 0 0 0 0 0 0 0 0 0 0 0 0 4 1 7 11 3
0 45 0 0 0 0 0 0 0 14 151 194 332 262 33 390 214 344 179 522 274 207 121 64 0 0 0 0 0 0 0 0 0 0 0 0 0 0 3 6 12 19 17 15
41 29 9 0 16 0 0 0 3 114 528 353 293 230 473 167 414 333 297 544 294 292 130 17 0 0 0 0 0 0 0 0 0 0 0 0 0 9 21 22 14 25 16 10
277 335 63 58 13 3 0 0 0 151 125 144 135 156 295 292 256 139 342 699 342 337 207 31 7 8 0 0 0 0 0 0 0 0 0 0 6 1 22 30 10 0 15 24
346 411 42 0 0 26 1 0 0 1 10 121 139 155 254 454 101 6 0 832 550 327 206 127 49 10 0 0 0 0 0 0 0 0 0 0 1 11 8 14 19 29 36 29
427 204 171 0 0 8 43 38 21 0 0 31 97 309 338 477 203 154 176 464 587 239 279 147 53 0 0 0 0 0 0 0 0 0 0 0 0 1 9 14 31 27 36 25
657 237 369 33 5 29 48 7 52 96 47 66 192 424 184 400 451 233 146 299 813 617 409 301 103 105 9 2 0 0 0 0 0 0 0 0 0 0 13 14 17 32 39 43
409 706 367 286 276 200 3 71 26 46 75 105 262 232 283 321 417 149 10 20 918 756 483 331 145 46 2 0 0 0 0 0 0 0 0 0 0 0 4 18 39 32 50 53
602 882 227 448 330 114 93 99 127 97 204 212 119 88 120 182 305 248 249 599 906 825 625 379 144 0 0 0 0 0 0 0 0 0 0 0 0 0 1 8 22 33 41 52
326 0 775 433 328 368 226 141 201 215 228 92 247 145 115 48 102 378 476 443 350 394 373 115 0 0 0 0 0 0 0 0 0 0 0 0 0 4 4 19 19 37 31 11
35 37 717 649 475 308 257 3 39 232 208 377 330 170 250 762 878 690 497 408 234 127 0 0 0 0 0 0 0 0 0 0 0 0 0 0 4 10 14 16 12 13 16 13
242 104 752 944 710 208 44 3 5 268 308 156 915 771 840 720 415 276 183 115 2 0 0 0 0 0 0 0 0 0 0 0 0 0 0 3 8 3 3 9 19 14 18 68
414 52 417 694 438 341 250 709 725 947 437 92 726 764 610 340 240 156 63 0 0 0 0 0 0 0 0 0 0 0 0 0 0 2 13 14 18 9 16 15 21 25 4 10
472 189 101 498 452 282 378 187 125 50 284 212 425 708 455 406 159 73 0 0 0 0 0 0 0 0 0 0 0 0 0 0 2 10 5 1 3 0 2 2 0 8 3 4
112 381 194 336 587 532 409 411 358 208 238 288 183 175 238 180 102 20 0 0 0 0 0 0 0 0 0 0 0 0 0 0 3 4 9 18 0 0 1 26 11 4 0 0
224 71 637 514 678 821 160 227 202 370 318 196 106 123 163 108 48 0 0 0 0 0 0 0 0 0 0 0 0 0 0 0 2 3 2 0 0 0 0 1 8 0 0 0
CIN
0 0 0 0 0 0 0 0 0 0 -1 0 0 0 0 0 -2 0 -1 -9 -12 -178 -300 -638 -2 -2 -150 -88 -100 -14 -12 -50 -44 -41 -15 -66 -66 -64 -103 -127 0 0 0 0
0 0 0 0 0 0 0 0 0 0 -3 0 0 0 0 -3 0 -1 0 -26 -63 -634 -762 -535 0 0 -43 -128 -94 -126 -99 -66 -87 -172 -175 -147 -128 -167 -171 -38 0 0 0 0
0 0 0 0 0 0 0 0 0 0 0 0 0 0 0 0 0 0 0 -45 -84 -344 -713 0 0 -66 -212 -315 -265 -266 -238 -253 -106 -148 -171 -118 -137 -95 -90 -7 0 0 0 0
0 0 0 0 0 0 0 0 0 0 0 0 0 0 0 0 -3 0 -12 -60 -127 -67 -277 -168 -119 -242 -319 -338 -308 -297 -311 -317 -303 -288 -96 -41 -79 -181 0 0 0 0 0 0
0 0 0 0 0 0 0 0 0 0 0 0 0 0 0 0 -12 -34 -35 -122 -131 -103 -138 -178 -312 -423 -428 -436 -481 -452 -394 -499 -432 -400 -307 -189 -227 -228 0 0 0 0 0 -2
0 0 0 0 0 0 0 0 0 0 0 0 0 0 0 -4 -4 -26 -63 -151 -149 -235 -192 0 0 0 0 0 0 0 0 0 0 0 0 0 0 0 0 0 0 0 0 0
0 0 0 0 0 0 0 0 0 0 0 0 0 0 0 -16 -33 -49 -95 -157 0 0 0 0 0 0 0 0 0 0 0 0 0 0 0 0 0 0 0 0 0 0 0 0
0 0 0 0 0 0 0 0 0 0 0 -2 -4 0 -7 -35 -39 -70 -131 -199 -192 -197 0 0 0 0 0 0 0 0 0 0 0 0 0 0 0 0 0 0 0 0 0 0
0 0 0 0 0 0 0 0 0 -5 -13 0 -36 -25 -16 -40 -80 -107 -153 -154 -138 -175 -229 -306 -364 -439 0 0 0 0 0 0 0 0 0 0 0 0 0 -1 -1 0 0 0
0 0 0 0 0 0 0 0 0 0 -3 -17 -2 -4 -13 -30 -67 -88 -102 -114 -131 -182 -232 -291 -326 0 0 0 0 0 0 0 0 0 0 0 0 0 0 0 -2 -3 -2 -3
0 -3 0 -1 0 0 0 0 -1 -1 -3 -1 -8 -7 -12 -36 -19 -41 -29 -56 -137 -163 -214 -262 -356 0 0 0 0 0 0 0 0 0 0 0 0 0 0 -3 -2 -1 -3 -4
0 -2 0 0 0 0 0 0 -1 -1 -2 0 0 -12 -38 -12 -7 -10 -11 -11 -67 -143 -198 -237 -7 0 0 0 0 0 0 0 0 0 0 0 0 0 -1 0 -1 -1 -2 -3
-6 -4 -1 0 -4 0 0 0 -1 -4 -7 -3 -4 -5 -19 -12 -2 -3 -1 -19 -44 -122 -160 -225 0 0 0 0 0 0 0 0 0 0 0 0 0 0 -1 0 -1 -2 -4 -4
-60 -4 -3 -20 -19 -2 0 0 0 -4 -5 -5 -5 -3 -13 -50 -48 -8 -11 -31 -38 -101 -137 -192 -303 -299 0 0 0 0 0 0 0 0 0 0 -1 0 -1 -1 -3 -1 -3 -4
-23 -6 -10 0 -4 -10 -2 0 0 -2 -1 -2 -2 -1 -16 -56 -317 -98 -16 -6 -46 -83 -126 -147 -204 -242 0 0 0 0 0 0 0 0 0 0 -1 0 -1 -1 -2 -2 -1 -1
-27 -22 -4 0 -2 -32 -20 -4 -7 0 0 -1 -2 -1 -8 -89 -133 -141 -78 -1 -14 -38 -73 -118 -168 -15 0 0 0 0 0 0 0 0 0 0 0 -1 -1 -2 -2 -2 -3 -5
-3 -12 -2 -9 -63 -24 -7 -28 -1 -3 -4 -2 -3 -57 -127 -15 -14 -20 -50 -11 -14 -25 -35 -71 -107 -86 -2 -1 0 0 0 0 0 0 0 0 0 0 -1 -2 -2 -5 -3 -4
-4 -3 -1 -1 0 0 -22 -3 -2 -6 -3 -2 -22 -20 -47 -12 -5 -60 -92 -70 -7 -10 -20 -46 -64 -91 -7 0 0 0 0 0 0 0 0 0 0 0 -2 -4 -5 -6 -4 -4
-3 -2 0 0 0 -4 -1 -10 -2 -1 -1 -3 -10 -72 -57 -15 -83 -125 -65 -44 -13 -26 -37 -41 -50 0 0 0 0 0 0 0 0 0 0 0 0 0 -1 -3 -4 -4 -3 -5
-95 -15 -1 0 -1 -1 -27 -142 -124 -1 -2 -45 -11 -27 -7 -33 -19 -47 -106 -73 -79 -69 -62 -73 0 0 0 0 0 0 0 0 0 0 0 0 0 -1 -1 -3 -2 -4 -5 -13
-29 -115 -1 -1 -2 -40 -86 -222 -299 -21 -15 -27 -7 -8 -13 -27 -48 -82 -83 -77 -90 -101 0 0 0 0 0 0 0 0 0 0 0 0 0 0 -1 -2 -6 -7 -4 -6 -11 -27
-95 -137 -1 0 -8 -11 -201 -132 -91 -13 -35 -43 -25 -74 -102 -124 -127 -115 -108 -120 -22 0 0 0 0 0 0 0 0 0 0 0 0 0 0 0 -1 -1 -1 -3 -7 -18 -27 -22
-33 -141 -17 0 -1 -194 -94 -35 -8 -13 -10 -19 -4 -19 -58 -96 -100 -116 -131 0 0 0 0 0 0 0 0 0 0 0 0 0 0 0 0 0 -1 -2 -6 -10 -8 -13 -2 -18
-3 -89 -43 0 -25 -48 -112 -160 -298 -252 -1 -3 -4 -5 -11 -36 -75 -110 0 0 0 0 0 0 0 0 0 0 0 0 0 0 0 -1 -1 -1 -2 0 -6 -10 0 -16 -8 -15
-68 -8 -56 -2 -5 -14 -36 -55 -60 -14 -1 -3 -1 -4 0 -34 -51 -117 0 0 0 0 0 0 0 0 0 0 0 0 0 0 0 0 -2 -2 0 0 -4 -12 -21 -16 0 0
-51 -154 -19 -18 -19 -59 -227 -31 -20 -1 -5 -2 -11 -13 -4 -11 -49 -7 0 0 0 0 0 0 0 0 0 0 0 0 0 0 0 -1 -1 0 0 0 0 -3 -27 0 0 0
Wind_Speed
15 12 15 18 17 20 21 15 12 15 12 12 14 10 14 12 11 8 11 12 11 20 16 27 28 34 19 12 8 7 8 6 6 7 5 6 4 2 5 4 8 6 5 6
16 17 19 19 18 16 17 11 16 15 6 8 8 12 14 12 10 10 8 14 15 19 20 28 12 15 9 14 15 13 12 11 11 5 5 4 3 3 2 5 4 4 3 4
19 20 21 19 17 9 11 13 15 16 13 10 7 13 18 18 13 3 3 10 14 18 14 14 14 11 14 16 14 13 12 10 10 7 6 3 1 1 1 3 3 1 3 3
20 22 17 14 17 10 15 16 15 16 15 12 16 13 16 20 14 10 7 10 12 11 18 17 11 9 12 12 12 11 10 10 8 10 2 1 5 4 2 1 5 0 3 3
20 23 20 14 15 12 16 15 13 16 15 15 19 11 12 11 16 13 14 10 6 10 15 15 13 12 11 11 11 12 13 12 10 10 8 4 6 4 4 2 3 4 4 6
21 20 17 20 15 16 15 11 13 8 11 13 17 17 15 11 14 16 14 10 8 10 13 14 13 12 12 12 13 11 10 9 8 8 8 8 7 5 4 5 4 5 5 4
21 22 19 12 12 15 15 10 9 11 11 13 17 17 13 12 22 22 18 14 12 11 12 12 12 11 11 11 11 10 9 8 7 8 7 7 3 3 2 4 5 5 3 3
19 18 22 14 18 17 17 14 11 12 12 8 14 15 9 15 18 20 18 16 15 14 13 12 12 11 11 11 10 10 9 8 7 7 7 4 5 4 4 4 4 5 5 6
17 22 17 25 14 20 17 16 19 18 17 13 4 10 11 14 14 18 19 16 16 14 13 13 13 12 11 10 9 9 9 8 7 6 5 4 4 2 3 4 4 5 5 6
20 19 17 18 22 18 20 16 14 10 11 14 12 14 10 18 16 17 17 16 15 14 15 13 12 12 11 10 8 8 9 7 7 5 4 3 4 4 4 4 5 6 6 6
22 17 16 16 15 18 13 17 15 10 10 10 11 4 11 12 11 14 17 18 15 15 15 13 13 12 12 11 10 8 8 8 7 3 4 4 3 5 3 5 5 4 5 7
21 10 12 21 19 19 19 19 19 10 13 10 9 2 1 14 15 16 14 20 19 16 15 13 13 12 11 10 9 6 5 5 6 4 4 3 3 3 3 2 4 5 6 7
16 14 11 17 15 13 15 21 14 11 10 11 9 9 6 2 10 14 13 21 18 16 16 13 12 10 9 9 8 7 4 6 5 4 3 2 1 2 4 3 4 5 6 7
7 10 14 12 17 15 19 18 17 14 12 13 14 14 8 9 2 8 8 21 18 14 14 13 11 9 9 8 7 6 6 4 4 2 0 2 4 3 4 3 5 5 5 5
4 11 15 19 23 18 17 20 20 20 13 12 10 7 8 5 9 15 25 13 16 13 14 13 11 9 8 7 6 6 6 3 2 3 1 3 2 3 3 3 3 4 4 5
10 10 13 19 21 21 21 18 23 20 19 19 16 14 12 14 14 18 22 9 16 13 15 13 11 11 9 8 6 6 4 3 2 2 3 3 2 3 3 3 4 4 3 4
14 12 14 18 21 21 22 20 15 15 18 16 15 15 12 12 15 9 4 3 13 15 13 12 11 9 8 7 6 5 4 2 2 4 5 3 2 3 4 4 4 5 3 4
16 15 12 13 17 24 15 18 17 17 12 11 15 12 18 14 9 9 5 5 10 13 13 12 9 9 9 8 6 5 2 1 5 5 4 4 4 5 5 5 4 5 5 5
19 15 12 13 16 17 18 5 13 16 17 12 13 8 17 16 11 10 7 10 12 12 11 9 10 11 10 8 6 5 4 6 4 3 4 5 6 6 6 6 6 5 5 5
4 7 12 14 18 18 4 5 17 2 10 9 12 20 21 16 10 10 11 12 13 12 11 11 12 11 9 8 5 5 5 1 2 5 5 5 5 6 6 7 4 5 6 7
11 2 22 15 10 0 7 7 12 7 0 10 11 8 6 10 12 14 13 13 12 12 13 13 12 10 9 7 5 3 3 4 4 4 4 5 5 5 6 4 4 6 7 8
7 3 14 14 10 7 8 11 12 5 4 10 17 18 20 19 18 16 14 14 14 14 14 12 11 9 7 6 6 3 2 1 2 3 5 5 5 5 5 5 6 7 8 6
13 13 14 8 7 27 16 7 11 10 10 9 16 17 17 18 17 16 14 14 13 13 12 11 10 9 7 4 3 4 3 2 3 4 4 4 5 6 4 6 6 6 5 4
23 9 4 5 14 16 18 13 7 11 12 14 16 16 15 16 16 15 13 13 12 11 10 10 10 8 7 5 5 1 1 3 4 5 6 5 6 4 7 5 6 3 3 2
7 13 17 10 16 20 17 17 15 17 14 17 14 13 16 16 15 14 13 13 12 10 10 9 8 7 7 7 4 1 4 3 4 6 6 4 6 6 8 4 4 3 5 4
8 6 10 1 13 13 5 7 14 15 14 13 12 14 14 15 15 15 13 12 11 10 10 8 8 7 7 5 4 2 3 4 3 5 6 5 5 6 5 4 2 9 8 7
Wind_Direction
204 221 226 234 231 251 271 303 269 250 179 178 243 228 256 254 215 243 244 239 358 38 42 51 354 351 38 32 46 132 142 123 99 127 149 78 95 89 67 96 48 23 359 3
226 225 239 242 250 245 258 280 284 295 190 164 238 275 269 251 270 189 239 47 47 80 83 102 269 167 207 70 66 33 53 57 61 55 37 24 67 86 251 74 90 40 351 319
228 226 216 246 250 236 268 267 262 276 282 170 211 263 274 262 237 176 58 39 56 112 118 136 160 243 66 68 70 71 69 62 71 88 93 92 110 116 301 97 94 12 46 345
233 243 259 209 244 232 241 245 256 269 265 266 199 246 237 239 199 204 117 67 39 87 146 148 128 96 76 78 72 82 74 57 50 37 100 219 72 68 78 280 104 251 228 268
229 232 239 208 249 227 257 261 285 231 263 272 271 270 260 270 162 163 100 81 61 63 89 93 92 92 96 94 84 68 70 67 65 58 44 20 33 52 102 6 336 248 215 222
245 246 223 246 217 242 250 241 265 288 255 250 250 267 264 177 177 121 109 117 123 96 92 95 97 97 99 97 90 75 72 70 65 68 61 55 52 39 32 357 304 23 324 1
234 240 248 214 239 227 227 223 241 231 231 242 237 235 254 106 129 134 141 143 133 125 114 115 119 113 109 108 105 111 104 102 92 82 70 65 59 73 34 355 4 317 342 338
229 224 234 179 226 232 210 226 239 235 222 254 252 233 206 123 113 133 142 145 141 146 136 135 125 129 121 116 105 111 121 121 106 91 81 71 31 33 16 34 3 307 354 340
239 231 224 222 200 236 195 218 246 268 286 287 236 77 115 122 137 137 141 152 149 136 132 134 130 118 122 125 125 122 113 109 113 123 121 101 49 42 38 1 345 7 357 336
247 265 248 220 202 219 251 213 220 237 260 275 253 184 222 161 155 156 157 154 143 137 142 136 136 128 128 123 120 123 124 123 108 96 65 72 86 50 23 12 352 1 351 325
230 253 259 217 195 211 215 243 254 237 235 237 274 145 91 135 179 170 166 150 150 154 143 147 135 135 129 144 133 132 132 136 123 117 80 83 25 27 38 20 12 350 332 325
211 237 238 258 212 212 236 217 232 242 238 261 279 176 273 188 188 178 191 153 151 153 145 142 140 141 147 134 131 116 111 117 93 90 71 73 27 356 22 346 355 351 347 337
205 218 228 257 260 212 218 246 222 231 267 270 264 270 131 85 178 175 193 144 143 143 147 145 142 146 150 136 137 137 144 87 84 28 89 103 256 319 345 2 352 348 1 337
239 208 217 238 244 208 212 229 239 219 211 229 244 270 173 177 90 23 240 131 137 148 146 144 144 152 141 141 149 134 108 97 54 183 229 250 35 337 288 328 26 334 303 314
179 226 214 225 256 269 207 222 229 235 234 249 254 259 138 81 72 54 320 108 138 156 151 143 150 147 141 144 140 134 105 92 243 290 336 350 262 331 333 291 265 306 316 330
213 227 227 236 236 247 261 235 211 222 230 222 228 253 160 141 144 184 221 162 153 151 153 151 153 151 156 158 164 143 121 218 22 284 279 274 297 320 320 285 274 274 323 332
204 198 212 232 237 252 248 248 243 219 224 221 220 103 56 162 190 184 79 8 147 150 150 146 150 148 145 142 126 132 180 140 240 262 278 309 300 309 322 332 309 287 305 300
208 203 209 226 223 236 244 240 231 251 243 222 107 139 161 112 77 70 27 326 117 126 130 132 142 130 119 114 116 127 159 213 243 262 298 326 344 341 339 318 322 360 334 323
199 215 212 227 232 242 237 249 288 233 232 160 115 122 94 103 99 68 45 71 88 103 110 120 123 114 119 127 138 143 191 224 252 308 336 347 342 343 336 334 1 335 322 302
230 342 210 208 239 239 169 352 335 257 211 147 166 165 159 154 189 116 92 89 95 99 105 110 112 119 123 121 142 184 217 271 300 12 344 328 325 328 335 301 333 326 304 287
175 236 248 219 228 263 88 7 10 235 170 37 139 122 123 92 95 117 114 112 112 114 116 116 121 128 131 145 169 185 218 44 9 318 319 306 333 337 292 8 322 290 285 286
165 41 227 222 211 211 178 119 155 227 75 90 91 99 102 108 117 123 123 121 123 124 125 134 129 125 137 160 192 126 72 257 332 331 300 331 331 320 318 316 285 281 281 289
179 166 232 292 248 143 179 160 116 140 136 134 114 118 122 126 128 131 131 134 126 140 141 131 132 150 144 130 110 188 100 4 354 308 320 317 317 316 335 291 296 296 345 23
205 209 192 219 122 130 112 78 56 318 134 122 115 124 131 129 132 133 135 131 144 136 135 145 141 138 146 152 191 244 71 34 321 351 343 348 310 339 290 292 287 307 302 340
23 186 192 235 153 121 137 150 172 190 116 120 125 134 130 135 137 139 136 145 135 146 143 140 149 139 158 187 153 163 57 356 351 352 304 344 353 318 301 292 297 316 46 56
2 10 277 117 124 115 127 174 168 131 121 123 135 121 132 139 140 136 140 138 144 141 141 137 151 180 142 148 139 116 63 11 348 329 349 341 318 300 299 312 309 49 109 123